Weather History for Springfield, IL

Change the Weather History Date:

Saturday, June 22, 2013

  Actual Average Record
Temperature  
Mean Temperature 80 °F 74 °F  
Max Temperature 90 °F 85 °F 99 °F (1944)
Min Temperature 69 °F 64 °F 47 °F (1963)
Degree Days  
Heating Degree Days 0 0  
Month to date heating degree days 12 11  
Since 1 June heating degree days 12 11  
Since 1 July heating degree days 5369 5481  
Cooling Degree Days 15 9  
Month to date cooling degree days 163 158  
Year to date cooling degree days 289 262  
Since 1 June cooling degree days 163 158  
Growing Degree Days 30 (Base 50)    
Moisture  
Dew Point 68 °F    
Average Humidity 68    
Maximum Humidity 84    
Minimum Humidity 52    
Precipitation  
Precipitation T in 0.15 in 1.94 in (2010)
Month to date precipitation 1.48 3.36  
Year to date precipitation 26.50 17.37  
Snow  
Snow 0.00 in 0.00 in 0.00 in ()
Month to date snowfall 0.0 0.0  
Since 1 June snowfall 0.0 0.0  
Since 1 July snowfall 33.1 20.9  
Snow Depth 0.00 in    
Sea Level Pressure  
Sea Level Pressure 30.03 in    
Wind  
Wind Speed 11 mph (South)    
Max Wind Speed 24 mph    
Max Gust Speed 29 mph    
Visibility 10 miles    
Events Rain , Thunderstorm    
T = Trace of Precipitation, MM = Missing Value Source: NWS Daily Summary

Daily Weather History Graph

Daily Weather History Graph

Search for Another Location

Airport:

Trip Planner

Search our weather history database for the weather conditions in past years. The results will help you decide how hot, cold, wet, or windy it might be!

Date:

Astronomy

Jun. 22, 2013 Rise Set
Actual Time 5:30 AM CDT 8:30 PM CDT
Civil Twilight 4:58 AM CDT 9:03 PM CDT
Nautical Twilight 4:16 AM CDT 9:45 PM CDT
Astronomical Twilight 3:28 AM CDT 10:33 PM CDT
Moon 7:45 PM CDT (6/22) 4:43 AM CDT (6/22)
Length of Visible Light 16h 05m
Length of Day
14h 59m
Waxing Gibbous, 99% of the Moon is Illuminated
Jun 22
Waxing Gibbous
Jun 23
Full
Jun 29
Last Quarter
Jul 8
New
Jul 15
First Quarter

Hourly Weather History & Observations

Time (CDT) Temp. Heat Index Dew Point Humidity Pressure Visibility Wind Dir Wind Speed Gust Speed Precip Events Conditions
12:52 AM 78.1 °F - 69.1 °F 74% 30.03 in 10.0 mi South 10.4 mph - N/A   Clear
1:52 AM 78.1 °F - 69.1 °F 74% 30.01 in 10.0 mi South 9.2 mph - N/A   Clear
2:52 AM 77.0 °F - 69.1 °F 76% 29.99 in 10.0 mi South 9.2 mph - N/A   Clear
3:52 AM 75.9 °F - 69.1 °F 79% 30.01 in 10.0 mi SSW 6.9 mph - N/A   Clear
4:52 AM 75.0 °F - 69.1 °F 82% 30.04 in 10.0 mi South 9.2 mph - N/A   Clear
5:52 AM 75.9 °F - 69.1 °F 79% 30.05 in 10.0 mi South 9.2 mph - N/A   Mostly Cloudy
6:52 AM 75.9 °F - 69.1 °F 79% 30.05 in 10.0 mi South 11.5 mph - N/A   Clear
7:52 AM 78.1 °F - 70.0 °F 76% 30.05 in 10.0 mi SSW 10.4 mph - N/A   Clear
8:52 AM 80.1 °F 83.2 °F 70.0 °F 71% 30.06 in 10.0 mi SSW 9.2 mph - N/A   Clear
9:52 AM 82.0 °F 86.3 °F 71.1 °F 69% 30.06 in 10.0 mi SW 9.2 mph - N/A   Clear
10:52 AM 82.0 °F 86.7 °F 72.0 °F 71% 30.08 in 10.0 mi SW 5.8 mph - N/A   Partly Cloudy
11:52 AM 86.0 °F 92.2 °F 72.0 °F 63% 30.06 in 10.0 mi SW 10.4 mph - N/A   Clear
12:52 PM 89.1 °F 94.1 °F 70.0 °F 53% 30.02 in 10.0 mi South 12.7 mph - N/A   Clear
1:52 PM 87.1 °F 90.6 °F 68.0 °F 53% 30.02 in 10.0 mi WSW 9.2 mph - N/A   Clear
2:52 PM 82.9 °F 87.5 °F 71.1 °F 67% 30.01 in 10.0 mi SW 4.6 mph - N/A   Clear
3:00 PM 82.4 °F 87.2 °F 71.6 °F 70% 30.02 in 10.0 mi SSW 5.8 mph - N/A Thunderstorm Thunderstorm
3:10 PM 82.4 °F 87.2 °F 71.6 °F 70% 30.03 in 10.0 mi SSE 3.5 mph - N/A Thunderstorm Thunderstorm
3:52 PM 79.0 °F - 69.1 °F 72% 30.05 in 10.0 mi SSE 16.1 mph 23.0 mph N/A Thunderstorm Thunderstorm
4:52 PM 73.0 °F - 66.0 °F 79% 30.05 in 10.0 mi SE 18.4 mph 25.3 mph 0.00 in   Scattered Clouds
5:52 PM 73.9 °F - 64.0 °F 71% 30.04 in 10.0 mi SSE 16.1 mph 23.0 mph 0.00 in Rain Light Rain
6:52 PM 73.0 °F - 64.0 °F 73% 30.01 in 10.0 mi South 18.4 mph 26.5 mph 0.00 in   Clear
7:52 PM 72.0 °F - 64.9 °F 78% 30.02 in 10.0 mi South 18.4 mph - N/A   Clear
8:52 PM 71.1 °F - 64.0 °F 78% 30.01 in 10.0 mi South 15.0 mph - 0.00 in   Clear
9:52 PM 71.1 °F - 63.0 °F 75% 30.01 in 10.0 mi SE 11.5 mph - N/A   Clear
10:52 PM 70.0 °F - 64.0 °F 81% 30.01 in 10.0 mi SW 8.1 mph - N/A   Clear
11:52 PM 70.0 °F - 64.9 °F 84% 30.01 in 10.0 mi South 6.9 mph - N/A   Clear